Location: ???????
(55.4362°N, 38.1183°E)
Time: 15:59:52
(UTC+00:00)

FENGYUN 1C DEB - Pass Details

Date: 01 February 2022
Orbit: 807 x 954 km, 100.9° (Epoch: 15 May)

Event Time Altitude Azimuth Distance (km) Brightness Sun altitude
Rises 01:22:02 0° 17° (NNE) 3,408 ? -33.5°
Reaches altitude 10° 01:24:39 10° 6° (N) 2,491 ? -33.1°
Enters shadow 01:26:08 17° 355° (N) 2,052 ? -32.9°
